Location: LDNL
(36.4545°S, 141.6685°E)
Time: 04:48:11
(UTC+11:00)

Vanguard 2 - Pass Details

Date: 18 August 2022
Orbit: 552 x 2934 km, 32.9° (Epoch: 06 October)

Event Time Altitude Azimuth Distance (km) Brightness Sun altitude
Rises 12:14:28 0° 347° (NNW) 5,937 12.8 40.1°
Reaches altitude 10° 12:19:35 10° 1° (N) 5,259 13.0 40.2°
Maximum altitude 12:30:33 22° 44° (NE) 4,736 12.5 40.4°
Drops below altitude 10° 12:42:19 10° 86° (E) 5,728 12.1 40.4°
Sets 12:48:07 0° 99° (E) 6,596 12.2 40.4°
